Weather History for Mobridge, SD

Change the Weather History Date:

Thursday, May 16, 2013

  Actual Average Record
Temperature  
Mean Temperature 59 °F 56 °F  
Max Temperature 66 °F 68 °F 97 °F (1934)
Min Temperature 51 °F 44 °F 27 °F (1929)
Degree Days  
Heating Degree Days 6 9  
Month to date heating degree days 212 183  
Since 1 July heating degree days 8110 7778  
Cooling Degree Days 0 0  
Month to date cooling degree days 9 0  
Year to date cooling degree days 9 1  
Growing Degree Days 10 (Base 50)    
Moisture  
Dew Point 44 °F    
Average Humidity 54    
Maximum Humidity 77    
Minimum Humidity 31    
Precipitation  
Precipitation T in 0.09 in 1.15 in (1942)
Month to date precipitation T 1.41  
Year to date precipitation 3.05 4.61  
Sea Level Pressure  
Sea Level Pressure 29.81 in    
Wind  
Wind Speed 13 mph (ENE)    
Max Wind Speed 28 mph    
Max Gust Speed 35 mph    
Visibility 10 miles    
Events Rain    
T = Trace of Precipitation, MM = Missing Value Source: NWS Daily Summary

Daily Weather History Graph

Daily Weather History Graph

Search for Another Location

Airport:

Trip Planner

Search our weather history database for the weather conditions in past years. The results will help you decide how hot, cold, wet, or windy it might be!

Date:

Astronomy

May. 16, 2013 Rise Set
Actual Time 6:09 AM CDT 9:07 PM CDT
Civil Twilight 5:34 AM CDT 9:42 PM CDT
Nautical Twilight 4:50 AM CDT 10:27 PM CDT
Astronomical Twilight 3:57 AM CDT 11:20 PM CDT
Moon 11:50 AM CDT (5/16) 1:24 AM CDT (5/16)
Length of Visible Light 16h 07m
Length of Day
14h 57m
Waxing Crescent, 36% of the Moon is Illuminated
May 16
Waxing Crescent
May 17
First Quarter
May 24
Full
May 31
Last Quarter
Jun 8
New

Hourly Weather History & Observations

Time (CDT) Temp. Dew Point Humidity Pressure Visibility Wind Dir Wind Speed Gust Speed Precip Events Conditions
12:52 AM 64.9 °F 33.1 °F 31% 29.83 in 10.0 mi ENE 12.7 mph - N/A   Scattered Clouds
1:52 AM 57.0 °F 36.0 °F 45% 29.84 in 10.0 mi East 8.1 mph - N/A   Clear
2:52 AM 61.0 °F 33.1 °F 35% 29.83 in 10.0 mi ESE 5.8 mph - N/A   Clear
3:52 AM 57.0 °F 35.1 °F 44% 29.82 in 10.0 mi East 8.1 mph - N/A   Clear
4:52 AM 57.9 °F 36.0 °F 44% 29.82 in 10.0 mi East 9.2 mph - N/A   Scattered Clouds
5:52 AM 55.9 °F 36.0 °F 47% 29.82 in 10.0 mi East 8.1 mph - N/A   Clear
7:52 AM 57.0 °F 37.9 °F 49% 29.82 in 10.0 mi East 8.1 mph - N/A   Mostly Cloudy
8:52 AM 60.1 °F 39.0 °F 46% 29.81 in 10.0 mi ESE 5.8 mph - N/A   Overcast
9:52 AM 62.1 °F 41.0 °F 46% 29.83 in 8.0 mi East 5.8 mph - N/A   Overcast
10:52 AM 62.1 °F 48.0 °F 60% 29.85 in 9.0 mi NNE 6.9 mph - 0.00 in   Overcast
11:52 AM 60.1 °F 50.0 °F 69% 29.83 in 10.0 mi NE 12.7 mph - 0.00 in   Overcast
12:52 PM 63.0 °F 51.1 °F 65% 29.81 in 10.0 mi ENE 16.1 mph - 0.00 in   Overcast
1:52 PM 64.0 °F 52.0 °F 65% 29.83 in 10.0 mi East 16.1 mph - 0.00 in   Overcast
2:52 PM 64.0 °F 53.1 °F 67% 29.78 in 10.0 mi ENE 13.8 mph - 0.00 in   Mostly Cloudy
3:52 PM 66.0 °F 53.1 °F 63% 29.81 in 10.0 mi NE 10.4 mph - N/A   Mostly Cloudy
4:52 PM 63.0 °F 51.1 °F 65% 29.82 in 10.0 mi NNE 12.7 mph - 0.00 in Rain Light Rain
5:52 PM 63.0 °F 50.0 °F 63% 29.79 in 10.0 mi NE 24.2 mph 28.8 mph 0.00 in   Scattered Clouds
6:52 PM 62.1 °F 50.0 °F 65% 29.78 in 10.0 mi ENE 21.9 mph 29.9 mph N/A   Mostly Cloudy
7:52 PM 60.1 °F 48.0 °F 64% 29.78 in 10.0 mi ENE 21.9 mph 29.9 mph N/A   Mostly Cloudy
8:52 PM 59.0 °F 48.9 °F 69% 29.80 in 10.0 mi East 20.7 mph 27.6 mph N/A   Overcast
9:52 PM 55.9 °F 48.0 °F 75% 29.81 in 10.0 mi East 18.4 mph 26.5 mph N/A   Partly Cloudy
10:52 PM 54.0 °F 46.9 °F 77% 29.81 in 10.0 mi East 16.1 mph - N/A   Clear
11:52 PM 53.1 °F 46.0 °F 77% 29.81 in 10.0 mi ENE 15.0 mph - N/A   Clear